{"data":{"norad_id":55447,"epoch":"2026-05-25T03:42:24.871392Z","epoch_age_seconds":71829,"freshness":"FRESH","line1":"1 55447U 23005C   26145.15445453  .00000066  00000+0  91382-2 0  9990","line2":"2 55447  28.6507 335.8939 2271746 186.8530 169.4737  7.60560646 92115","mean_motion":7.60560646,"eccentricity":0.2271746,"inclination_deg":28.6507,"raan_deg":335.8939,"arg_perigee_deg":186.853,"mean_anomaly_deg":169.4737,"bstar":0.0091382,"rev_number":9211,"period_min":189.33401400314,"perigee_km":2062.8648505309,"apogee_km":7025.3860590565,"semimajor_km":10922.262454794,"source":"CELESTRAK","updated_at":"2026-05-25T13:37:59.008402Z"}}